Location: Campillo
(40.8621°N, 4.2488°W)
Time: 17:39:01
(UTC+00:00)

Cosmos 2084 - Pass Details

Date: 29 September 2021
Orbit: 528 x 653 km, 62.8° (Epoch: 28 October)

Event Time Altitude Azimuth Distance (km) Brightness Sun altitude
Exits shadow 05:19:53 15° 271° (W) 1,496 4.9 -10.6°
Maximum altitude 05:22:12 24° 316° (NW) 1,146 4.6 -10.2°
Drops below altitude 10° 05:25:34 10° 12° (NNE) 1,827 6.2 -9.5°
Sets 05:28:09 0° 26° (NNE) 2,745 7.3 -9.0°
